カタログに戻る

AFR-1

運用中アマチュア無線SSO
NORAD 56964·PAYLOAD·🇮🇳 India

打ち上げ Jun 12, 2023 から Vandenberg Space Force Base

Loading…

次のパス (今後24時間)

TLE

最新Source: Space-Track

元期: Sep 14, 2026, 13:39 UTC

1 56964U 23084AJ  26257.56924819  .00003746  00000-0  13468-3 0  9998
2 56964  97.6407  36.5253 0011019  31.2521 328.9371 15.29237193180885

AllMySatでAFR-1をリアルタイム追跡

Download on the App Store